PDA1204 UKBB-LGSK

Flight info

Callsign PDA1204
Flight time 1h 57m
Altitude 34000
Route BASOR M856 SULUM N145 LAVDA N181 NUNTA/N0442F340 DCT UPAMA DCT NIKTI UY505 PEREN EVIK1C SKP W58 EVIKO
Aircraft B738/M-SDE2E3FGHIRWXY/LB1

Departure

Time 2026-04-09 08:12
Airport Boryspil International Airport (UKBB)

Arrival

Time 2026-04-09 10:09
Airport Skiathos Island National Airport (LGSK)
Time Latitude Longitude Altitude Speed Heading
2026-04-09 07:51 50.33416 30.89591 414 ft 0 kts 182°
2026-04-09 08:10 50.33412 30.89591 414 ft 4 kts 182°
2026-04-09 08:10 50.33351 30.89622 409 ft 15 kts 123°
2026-04-09 08:10 50.33334 30.89823 414 ft 20 kts 92°
2026-04-09 08:11 50.33328 30.90037 414 ft 19 kts 92°
2026-04-09 08:11 50.33322 30.90244 409 ft 19 kts 92°
2026-04-09 08:11 50.33361 30.90423 417 ft 18 kts 35°
2026-04-09 08:11 50.33534 30.90461 416 ft 51 kts
2026-04-09 08:12 50.34133 30.90505 414 ft 119 kts
2026-04-09 08:12 50.35123 30.90554 673 ft 153 kts
2026-04-09 08:12 50.36225 30.90662 1431 ft 159 kts
2026-04-09 08:12 50.37277 30.90818 2417 ft 155 kts
2026-04-09 08:13 50.38420 30.90966 2930 ft 180 kts
2026-04-09 08:13 50.39763 30.91064 3225 ft 205 kts
2026-04-09 08:13 50.41258 30.91159 3564 ft 225 kts
2026-04-09 08:13 50.42906 30.91258 3985 ft 243 kts
2026-04-09 08:14 50.44623 30.91356 4840 ft 246 kts
2026-04-09 08:14 50.46353 30.91453 5710 ft 253 kts
2026-04-09 08:14 50.48133 30.91553 6573 ft 257 kts
2026-04-09 08:14 50.49938 30.91655 7386 ft 263 kts
2026-04-09 08:15 50.51726 30.92276 8177 ft 264 kts 29°
2026-04-09 08:15 50.53132 30.94135 8965 ft 269 kts 55°
2026-04-09 08:15 50.53885 30.96778 9778 ft 272 kts 81°
2026-04-09 08:15 50.54013 30.99756 10490 ft 279 kts 80°
2026-04-09 08:16 50.54748 31.02696 10739 ft 302 kts 65°
2026-04-09 08:16 50.55215 31.05999 11000 ft 322 kts 94°
2026-04-09 08:16 50.54504 31.09360 11602 ft 331 kts 123°
2026-04-09 08:16 50.52805 31.11785 12406 ft 336 kts 152°
2026-04-09 08:17 50.50534 31.12702 13156 ft 345 kts 179°
2026-04-09 08:17 50.48161 31.11995 13951 ft 350 kts 197°
2026-04-09 08:17 50.45869 31.10588 14573 ft 358 kts 205°
2026-04-09 08:17 50.43728 31.08536 15208 ft 364 kts 215°
2026-04-09 08:18 50.41702 31.06106 15874 ft 369 kts 217°
2026-04-09 08:18 50.39682 31.03589 16518 ft 374 kts 218°
2026-04-09 08:18 50.37657 31.01073 17182 ft 377 kts 218°
2026-04-09 08:18 50.35580 30.98530 17902 ft 380 kts 218°
2026-04-09 08:19 50.33467 30.95976 18436 ft 387 kts 217°
2026-04-09 08:19 50.31328 30.93406 19090 ft 388 kts 217°
2026-04-09 08:19 50.29047 30.91113 19627 ft 393 kts 207°
2026-04-09 08:19 50.26502 30.89486 20146 ft 398 kts 196°
2026-04-09 08:20 50.23784 30.88542 20735 ft 400 kts 189°
2026-04-09 08:20 50.21025 30.87787 21267 ft 404 kts 189°
2026-04-09 08:20 50.18233 30.87040 21759 ft 409 kts 189°
2026-04-09 08:20 50.15445 30.86276 22252 ft 414 kts 190°
2026-04-09 08:21 50.12593 30.85472 22751 ft 418 kts 190°
2026-04-09 08:21 50.09715 30.84643 23238 ft 423 kts 190°
2026-04-09 08:21 50.06804 30.83801 23655 ft 428 kts 191°
2026-04-09 08:21 50.03863 30.82952 24076 ft 431 kts 191°
2026-04-09 08:22 50.00902 30.82099 24503 ft 434 kts 191°
2026-04-09 08:22 49.97917 30.81242 24922 ft 437 kts 191°
2026-04-09 08:22 49.94920 30.80383 25323 ft 440 kts 191°
2026-04-09 08:22 49.91889 30.79515 25710 ft 443 kts 191°
2026-04-09 08:23 49.88883 30.78655 26091 ft 446 kts 191°
2026-04-09 08:23 49.85820 30.77780 26481 ft 449 kts 191°
2026-04-09 08:23 49.82744 30.76859 26835 ft 452 kts 195°
2026-04-09 08:23 49.79771 30.75273 27194 ft 453 kts 206°
2026-04-09 08:24 49.77027 30.72890 27571 ft 453 kts 216°
2026-04-09 08:24 49.74536 30.69889 27937 ft 454 kts 222°
2026-04-09 08:24 49.72108 30.66765 28282 ft 456 kts 222°
2026-04-09 08:24 49.69663 30.63603 28616 ft 459 kts 222°
2026-04-09 08:25 49.67201 30.60433 28942 ft 462 kts 222°
2026-04-09 08:25 49.64721 30.57264 29291 ft 464 kts 222°
2026-04-09 08:25 49.62223 30.54094 29618 ft 466 kts 222°
2026-04-09 08:25 49.59709 30.50923 29929 ft 468 kts 221°
2026-04-09 08:26 49.57177 30.47741 30203 ft 470 kts 221°
2026-04-09 08:26 49.54639 30.44561 30544 ft 470 kts 221°
2026-04-09 08:26 49.52106 30.41395 30924 ft 468 kts 221°
2026-04-09 08:26 49.49578 30.38238 31285 ft 467 kts 221°
2026-04-09 08:27 49.47050 30.35084 31598 ft 468 kts 221°
2026-04-09 08:27 49.44550 30.31968 31901 ft 468 kts 221°
2026-04-09 08:27 49.42023 30.28822 32241 ft 467 kts 221°
2026-04-09 08:27 49.39496 30.25681 32579 ft 466 kts 221°
2026-04-09 08:28 49.36974 30.22548 32899 ft 466 kts 221°
2026-04-09 08:28 49.34450 30.19419 33195 ft 466 kts 220°
2026-04-09 08:28 49.31928 30.16295 33514 ft 466 kts 220°
2026-04-09 08:28 49.29430 30.13206 33833 ft 465 kts 220°
2026-04-09 08:29 49.26916 30.10101 34108 ft 464 kts 220°
2026-04-09 08:29 49.24396 30.06993 34351 ft 464 kts 220°
2026-04-09 08:29 49.21882 30.03897 34589 ft 464 kts 220°
2026-04-09 08:29 49.19360 30.00796 34839 ft 463 kts 220°
2026-04-09 08:30 49.16852 29.97715 35083 ft 463 kts 220°
2026-04-09 08:30 49.14344 29.94638 35317 ft 463 kts 220°
2026-04-09 08:30 49.11834 29.91564 35540 ft 462 kts 220°
2026-04-09 08:30 49.09325 29.88494 35762 ft 462 kts 220°
2026-04-09 08:31 49.04292 29.82349 35961 ft 465 kts 220°
2026-04-09 08:31 49.01762 29.79265 35976 ft 464 kts 220°
2026-04-09 08:32 48.96736 29.73154 35970 ft 460 kts 220°
2026-04-09 08:32 48.91750 29.67108 35972 ft 457 kts 220°
2026-04-09 08:33 48.86822 29.61147 35978 ft 454 kts 220°
2026-04-09 08:33 48.81875 29.55178 35984 ft 454 kts 220°
2026-04-09 08:34 48.76929 29.49224 35985 ft 454 kts 220°
2026-04-09 08:34 48.71956 29.43255 35987 ft 456 kts 220°
2026-04-09 08:35 48.66960 29.37273 35992 ft 459 kts 220°
2026-04-09 08:35 48.61936 29.31274 35990 ft 462 kts 220°
2026-04-09 08:36 48.56889 29.25263 35986 ft 466 kts 220°
2026-04-09 08:36 48.51792 29.19209 35984 ft 466 kts 220°
2026-04-09 08:37 48.46698 29.13174 35983 ft 465 kts 220°
2026-04-09 08:37 48.41652 29.07212 35985 ft 463 kts 220°
2026-04-09 08:38 48.36586 29.01242 35987 ft 462 kts 220°
2026-04-09 08:38 48.31526 28.95293 35991 ft 462 kts 220°
2026-04-09 08:39 48.26472 28.89366 35989 ft 460 kts 220°
2026-04-09 08:39 48.21428 28.83466 35987 ft 458 kts 219°
2026-04-09 08:40 48.16404 28.77602 35990 ft 457 kts 219°
2026-04-09 08:40 48.11328 28.71878 35986 ft 458 kts 214°
2026-04-09 08:41 48.05850 28.67022 35986 ft 458 kts 211°
2026-04-09 08:41 48.00339 28.62374 35983 ft 458 kts 211°
2026-04-09 08:42 47.94807 28.57653 36002 ft 458 kts 212°
2026-04-09 08:42 47.89280 28.52884 35994 ft 459 kts 212°
2026-04-09 08:43 47.83737 28.48091 35989 ft 460 kts 212°
2026-04-09 08:43 47.78192 28.43308 36009 ft 461 kts 212°
2026-04-09 08:44 47.72632 28.38527 35990 ft 462 kts 212°
2026-04-09 08:44 47.67072 28.33759 36000 ft 462 kts 212°
2026-04-09 08:45 47.61535 28.29023 35997 ft 462 kts 212°
2026-04-09 08:45 47.55949 28.24257 36000 ft 462 kts 212°
2026-04-09 08:46 47.50375 28.19512 36006 ft 462 kts 212°
2026-04-09 08:46 47.45739 28.15575 36003 ft 462 kts 212°
2026-04-09 08:47 47.40172 28.10858 36003 ft 461 kts 212°
2026-04-09 08:47 47.34608 28.06154 36005 ft 460 kts 212°
2026-04-09 08:48 47.29038 28.01458 36014 ft 460 kts 212°
2026-04-09 08:48 47.23481 27.96783 36015 ft 459 kts 212°
2026-04-09 08:49 47.17925 27.92120 36020 ft 459 kts 212°
2026-04-09 08:49 47.12413 27.87504 36015 ft 458 kts 212°
2026-04-09 08:50 47.06826 27.82979 36017 ft 459 kts 210°
2026-04-09 08:50 47.01127 27.78748 36019 ft 459 kts 208°
2026-04-09 08:51 46.95416 27.74556 36023 ft 459 kts 209°
2026-04-09 08:51 46.89714 27.70335 36021 ft 459 kts 209°
2026-04-09 08:52 46.84014 27.66096 36022 ft 459 kts 209°
2026-04-09 08:52 46.78354 27.61887 36027 ft 459 kts 209°
2026-04-09 08:53 46.72646 27.57654 36027 ft 459 kts 209°
2026-04-09 08:53 46.66941 27.53434 36028 ft 460 kts 209°
2026-04-09 08:54 46.61233 27.49223 36035 ft 460 kts 209°
2026-04-09 08:54 46.55547 27.45038 36033 ft 460 kts 210°
2026-04-09 08:55 46.49824 27.40836 36028 ft 460 kts 210°
2026-04-09 08:55 46.44106 27.36647 36037 ft 461 kts 210°
2026-04-09 08:56 46.38376 27.32459 36038 ft 461 kts 210°
2026-04-09 08:56 46.32653 27.28287 36049 ft 460 kts 210°
2026-04-09 08:57 46.26922 27.24118 36034 ft 460 kts 210°
2026-04-09 08:57 46.21240 27.19995 36045 ft 460 kts 210°
2026-04-09 08:58 46.15510 27.15847 36042 ft 460 kts 210°
2026-04-09 08:58 46.09787 27.11713 36048 ft 459 kts 210°
2026-04-09 08:59 46.04073 27.07595 36048 ft 459 kts 210°
2026-04-09 08:59 45.98354 27.03484 36052 ft 459 kts 210°
2026-04-09 09:00 45.92642 26.99387 36048 ft 459 kts 210°
2026-04-09 09:00 45.86923 26.95294 36057 ft 459 kts 210°
2026-04-09 09:01 45.81239 26.91236 36055 ft 459 kts 210°
2026-04-09 09:01 45.75509 26.87155 36049 ft 459 kts 210°
2026-04-09 09:02 45.69791 26.83091 36052 ft 459 kts 210°
2026-04-09 09:02 45.64066 26.79031 36056 ft 459 kts 210°
2026-04-09 09:03 45.58337 26.74979 36053 ft 460 kts 210°
2026-04-09 09:03 45.52598 26.70928 36047 ft 460 kts 210°
2026-04-09 09:04 45.46859 26.66887 36050 ft 460 kts 210°
2026-04-09 09:04 45.41109 26.62847 36046 ft 461 kts 210°
2026-04-09 09:05 45.35382 26.58833 36053 ft 462 kts 210°
2026-04-09 09:05 45.29615 26.54800 36048 ft 462 kts 210°
2026-04-09 09:06 45.23835 26.50767 36054 ft 463 kts 210°
2026-04-09 09:06 45.18044 26.46734 36044 ft 464 kts 210°
2026-04-09 09:07 45.12246 26.42707 36053 ft 464 kts 210°
2026-04-09 09:07 45.06432 26.38678 36044 ft 465 kts 210°
2026-04-09 09:08 45.00654 26.34683 36053 ft 465 kts 210°
2026-04-09 09:08 44.94841 26.30672 36054 ft 465 kts 210°
2026-04-09 09:09 44.89025 26.26669 36060 ft 465 kts 210°
2026-04-09 09:09 44.83203 26.22671 36061 ft 465 kts 210°
2026-04-09 09:10 44.77381 26.18682 36068 ft 465 kts 210°
2026-04-09 09:10 44.71551 26.14696 36047 ft 465 kts 210°
2026-04-09 09:11 44.65729 26.10725 36048 ft 465 kts 210°
2026-04-09 09:11 44.59944 26.06788 36047 ft 465 kts 210°
2026-04-09 09:12 44.54124 26.02835 36045 ft 464 kts 211°
2026-04-09 09:12 44.48298 25.98888 36050 ft 464 kts 211°
2026-04-09 09:13 44.42471 25.94948 36049 ft 464 kts 211°
2026-04-09 09:13 44.36650 25.91021 36054 ft 464 kts 211°
2026-04-09 09:14 44.30864 25.87126 36058 ft 464 kts 211°
2026-04-09 09:14 44.25042 25.83216 36067 ft 464 kts 211°
2026-04-09 09:15 44.19219 25.79314 36064 ft 465 kts 211°
2026-04-09 09:15 44.13389 25.75415 36066 ft 465 kts 211°
2026-04-09 09:16 44.07551 25.71520 36067 ft 466 kts 211°
2026-04-09 09:16 44.01711 25.67632 36063 ft 466 kts 211°
2026-04-09 09:17 43.95855 25.63743 36072 ft 466 kts 211°
2026-04-09 09:17 43.89996 25.59859 36069 ft 466 kts 211°
2026-04-09 09:18 43.84145 25.55989 36066 ft 466 kts 211°
2026-04-09 09:18 43.78280 25.52118 36066 ft 466 kts 211°
2026-04-09 09:19 43.72456 25.48283 36067 ft 467 kts 211°
2026-04-09 09:19 43.66600 25.44433 36070 ft 467 kts 211°
2026-04-09 09:20 43.60725 25.40587 36073 ft 467 kts 211°
2026-04-09 09:20 43.54840 25.36786 36065 ft 467 kts 210°
2026-04-09 09:21 43.48936 25.32993 36069 ft 467 kts 211°
2026-04-09 09:21 43.43049 25.29213 36079 ft 467 kts 211°
2026-04-09 09:22 43.37153 25.25430 36079 ft 467 kts 211°
2026-04-09 09:22 43.31269 25.21662 36071 ft 467 kts 211°
2026-04-09 09:23 43.25415 25.17922 36075 ft 467 kts 211°
2026-04-09 09:23 43.19528 25.14169 36071 ft 466 kts 211°
2026-04-09 09:24 43.13639 25.10422 36065 ft 466 kts 211°
2026-04-09 09:24 43.07756 25.06688 36074 ft 466 kts 211°
2026-04-09 09:25 43.01865 25.02956 36068 ft 466 kts 211°
2026-04-09 09:25 42.95982 24.99237 36068 ft 466 kts 211°
2026-04-09 09:26 42.90097 24.95525 36068 ft 466 kts 211°
2026-04-09 09:26 42.84252 24.91846 36059 ft 466 kts 211°
2026-04-09 09:27 42.78359 24.88144 36057 ft 466 kts 211°
2026-04-09 09:27 42.72428 24.84426 36070 ft 467 kts 212°
2026-04-09 09:28 42.66554 24.80749 36063 ft 468 kts 212°
2026-04-09 09:28 42.60645 24.77062 36061 ft 468 kts 212°
2026-04-09 09:29 42.54706 24.73363 36060 ft 468 kts 212°
2026-04-09 09:29 42.48775 24.69676 36054 ft 469 kts 212°
2026-04-09 09:30 42.42846 24.65999 36058 ft 469 kts 212°
2026-04-09 09:30 42.36907 24.62323 36052 ft 469 kts 212°
2026-04-09 09:31 42.30997 24.58672 36052 ft 470 kts 212°
2026-04-09 09:31 42.25057 24.55010 36051 ft 470 kts 212°
2026-04-09 09:32 42.19099 24.51345 36054 ft 470 kts 212°
2026-04-09 09:32 42.14111 24.48283 36052 ft 470 kts 212°
2026-04-09 09:33 42.08181 24.44649 36052 ft 470 kts 212°
2026-04-09 09:33 42.02221 24.41004 36054 ft 471 kts 212°
2026-04-09 09:34 41.96245 24.37357 36044 ft 472 kts 212°
2026-04-09 09:34 41.87280 24.31900 36047 ft 471 kts 213°
2026-04-09 09:35 41.81319 24.28281 36048 ft 470 kts 213°
2026-04-09 09:35 41.75408 24.24699 36047 ft 469 kts 213°
2026-04-09 09:36 41.69450 24.21096 36048 ft 469 kts 213°
2026-04-09 09:36 41.63487 24.17495 36039 ft 470 kts 213°
2026-04-09 09:37 41.57570 24.13932 36013 ft 470 kts 213°
2026-04-09 09:37 41.54487 24.12348 35598 ft 482 kts 205°
2026-04-09 09:37 41.51192 24.11380 35210 ft 487 kts 196°
2026-04-09 09:38 41.47844 24.10813 34803 ft 485 kts 195°
2026-04-09 09:38 41.44494 24.10324 34345 ft 484 kts 195°
2026-04-09 09:38 41.41149 24.09842 33913 ft 481 kts 195°
2026-04-09 09:38 41.37831 24.09345 33396 ft 477 kts 196°
2026-04-09 09:39 41.34549 24.08832 32979 ft 473 kts 196°
2026-04-09 09:39 41.31329 24.08311 32555 ft 470 kts 197°
2026-04-09 09:39 41.28100 24.07777 32078 ft 465 kts 197°
2026-04-09 09:39 41.24920 24.07250 31801 ft 457 kts 197°
2026-04-09 09:40 41.21770 24.06727 31308 ft 455 kts 197°
2026-04-09 09:40 41.18641 24.06208 30954 ft 451 kts 197°
2026-04-09 09:40 41.15537 24.05693 30556 ft 449 kts 197°
2026-04-09 09:40 41.12446 24.05181 30170 ft 447 kts 197°
2026-04-09 09:41 41.09368 24.04672 29720 ft 444 kts 197°
2026-04-09 09:41 41.06308 24.04167 29283 ft 441 kts 197°
2026-04-09 09:41 41.03262 24.03667 28865 ft 438 kts 197°
2026-04-09 09:41 41.00235 24.03172 28374 ft 437 kts 197°
2026-04-09 09:42 40.97198 24.02682 27740 ft 441 kts 196°
2026-04-09 09:42 40.94161 24.02204 27335 ft 438 kts 196°
2026-04-09 09:42 40.91174 24.01737 26947 ft 437 kts 196°
2026-04-09 09:42 40.88162 24.01263 26543 ft 435 kts 195°
2026-04-09 09:43 40.85176 24.00795 26312 ft 429 kts 195°
2026-04-09 09:43 40.82228 24.00333 25993 ft 424 kts 196°
2026-04-09 09:43 40.79312 23.99872 25744 ft 419 kts 196°
2026-04-09 09:43 40.76424 23.99415 25463 ft 415 kts 196°
2026-04-09 09:44 40.73575 23.98966 25134 ft 412 kts 196°
2026-04-09 09:44 40.70731 23.98518 24766 ft 410 kts 196°
2026-04-09 09:44 40.67906 23.98073 24396 ft 408 kts 196°
2026-04-09 09:44 40.65087 23.97629 23997 ft 408 kts 196°
2026-04-09 09:45 40.62271 23.97187 23606 ft 407 kts 195°
2026-04-09 09:45 40.59460 23.96735 23159 ft 405 kts 197°
2026-04-09 09:45 40.56682 23.96143 22628 ft 403 kts 199°
2026-04-09 09:45 40.53938 23.95456 22242 ft 399 kts 200°
2026-04-09 09:46 40.51226 23.94742 21857 ft 396 kts 200°
2026-04-09 09:46 40.48530 23.94028 21485 ft 394 kts 200°
2026-04-09 09:46 40.45889 23.93335 21127 ft 391 kts 200°
2026-04-09 09:46 40.43165 23.92746 20758 ft 390 kts 198°
2026-04-09 09:47 40.40542 23.92127 20403 ft 387 kts 199°
2026-04-09 09:47 40.37897 23.91500 20043 ft 385 kts 198°
2026-04-09 09:47 40.35266 23.90881 19685 ft 383 kts 198°
2026-04-09 09:47 40.32643 23.90263 19333 ft 381 kts 198°
2026-04-09 09:48 40.30040 23.89634 18967 ft 379 kts 199°
2026-04-09 09:48 40.27465 23.88924 18610 ft 377 kts 200°
2026-04-09 09:48 40.24909 23.88195 18235 ft 375 kts 200°
2026-04-09 09:48 40.22358 23.87482 17833 ft 374 kts 199°
2026-04-09 09:49 40.19817 23.86794 17454 ft 372 kts 199°
2026-04-09 09:49 40.17287 23.86129 17093 ft 370 kts 198°
2026-04-09 09:49 40.14770 23.85482 16747 ft 368 kts 198°
2026-04-09 09:49 40.12268 23.84847 16396 ft 366 kts 198°
2026-04-09 09:50 40.09776 23.84220 16037 ft 364 kts 197°
2026-04-09 09:50 40.07317 23.83603 15675 ft 362 kts 197°
2026-04-09 09:50 40.04842 23.82984 15332 ft 360 kts 197°
2026-04-09 09:50 40.02385 23.82371 14990 ft 358 kts 197°
2026-04-09 09:51 39.99943 23.81762 14635 ft 356 kts 197°
2026-04-09 09:51 39.97521 23.81159 14293 ft 353 kts 197°
2026-04-09 09:51 39.95119 23.80561 13954 ft 351 kts 196°
2026-04-09 09:51 39.92733 23.79968 13576 ft 348 kts 196°
2026-04-09 09:52 39.90355 23.79377 13201 ft 345 kts 196°
2026-04-09 09:52 39.88006 23.78794 12844 ft 340 kts 196°
2026-04-09 09:52 39.85719 23.78229 12515 ft 328 kts 196°
2026-04-09 09:52 39.83501 23.77682 12188 ft 322 kts 196°
2026-04-09 09:53 39.81307 23.77137 11873 ft 320 kts 196°
2026-04-09 09:53 39.79127 23.76595 11550 ft 318 kts 196°
2026-04-09 09:53 39.76958 23.76056 11226 ft 316 kts 196°
2026-04-09 09:53 39.74805 23.75522 10917 ft 314 kts 196°
2026-04-09 09:54 39.72660 23.74990 10594 ft 312 kts 195°
2026-04-09 09:54 39.70531 23.74464 10327 ft 309 kts 195°
2026-04-09 09:54 39.68449 23.73951 10202 ft 301 kts 195°
2026-04-09 09:54 39.66414 23.73451 10064 ft 293 kts 195°
2026-04-09 09:55 39.64412 23.72957 9758 ft 292 kts 195°
2026-04-09 09:55 39.62453 23.72472 9472 ft 290 kts 195°
2026-04-09 09:55 39.60477 23.71984 9187 ft 288 kts 195°
2026-04-09 09:55 39.58512 23.71499 8908 ft 286 kts 195°
2026-04-09 09:56 39.56567 23.71020 8627 ft 284 kts 195°
2026-04-09 09:56 39.54627 23.70542 8373 ft 281 kts 194°
2026-04-09 09:56 39.52715 23.70071 8113 ft 279 kts 194°
2026-04-09 09:56 39.50814 23.69604 7853 ft 276 kts 194°
2026-04-09 09:57 39.48931 23.69142 7595 ft 274 kts 194°
2026-04-09 09:57 39.47068 23.68684 7334 ft 272 kts 194°
2026-04-09 09:57 39.45209 23.68227 7087 ft 270 kts 193°
2026-04-09 09:57 39.43367 23.67775 6837 ft 269 kts 193°
2026-04-09 09:58 39.41535 23.67326 6585 ft 267 kts 193°
2026-04-09 09:58 39.39733 23.66885 6335 ft 266 kts 193°
2026-04-09 09:58 39.38118 23.66489 6102 ft 266 kts 193°
2026-04-09 09:58 39.36266 23.66035 5826 ft 265 kts 193°
2026-04-09 09:59 39.34451 23.65591 5551 ft 265 kts 193°
2026-04-09 09:59 39.32636 23.65147 5310 ft 264 kts 192°
2026-04-09 09:59 39.30830 23.64706 5043 ft 264 kts 192°
2026-04-09 09:59 39.29048 23.64271 4782 ft 263 kts 192°
2026-04-09 10:00 39.27251 23.63832 4525 ft 262 kts 192°
2026-04-09 10:00 39.25464 23.63396 4261 ft 261 kts 192°
2026-04-09 10:00 39.23705 23.62968 4038 ft 252 kts 191°
2026-04-09 10:00 39.21995 23.62551 4004 ft 249 kts 191°
2026-04-09 10:01 39.20325 23.62145 3979 ft 238 kts 192°
2026-04-09 10:01 39.18738 23.61734 3991 ft 226 kts 199°
2026-04-09 10:01 39.17512 23.60672 4026 ft 205 kts 233°
2026-04-09 10:01 39.16495 23.59354 4001 ft 214 kts 222°
2026-04-09 10:02 39.15230 23.58281 3994 ft 220 kts 208°
2026-04-09 10:02 39.13814 23.57556 3988 ft 219 kts 198°
2026-04-09 10:02 39.12328 23.57192 3991 ft 215 kts 184°
2026-04-09 10:02 39.10859 23.57046 3802 ft 210 kts 190°
2026-04-09 10:03 39.09485 23.56531 3496 ft 204 kts 205°
2026-04-09 10:03 39.08261 23.55614 3180 ft 203 kts 219°
2026-04-09 10:03 39.07156 23.54505 2905 ft 201 kts 215°
2026-04-09 10:03 39.05934 23.53602 2579 ft 203 kts 208°
2026-04-09 10:04 39.04685 23.52782 2389 ft 196 kts 207°
2026-04-09 10:04 39.03464 23.52006 2089 ft 196 kts 207°
2026-04-09 10:04 39.02308 23.51092 2008 ft 196 kts 224°
2026-04-09 10:04 39.01597 23.49646 2025 ft 191 kts 256°
2026-04-09 10:05 39.01410 23.47962 2014 ft 190 kts 276°
2026-04-09 10:05 39.01604 23.46295 1999 ft 186 kts 294°
2026-04-09 10:05 39.02306 23.44980 1986 ft 176 kts 326°
2026-04-09 10:05 39.03384 23.44499 1991 ft 167 kts
2026-04-09 10:06 39.04548 23.44731 2010 ft 173 kts 12°
2026-04-09 10:06 39.05721 23.45050 2005 ft 171 kts 16°
2026-04-09 10:06 39.06834 23.45523 1960 ft 163 kts 18°
2026-04-09 10:06 39.07877 23.45999 1730 ft 155 kts 19°
2026-04-09 10:07 39.08855 23.46439 1470 ft 146 kts 19°
2026-04-09 10:07 39.09776 23.46873 1247 ft 136 kts 19°
2026-04-09 10:07 39.10667 23.47307 958 ft 135 kts 18°
2026-04-09 10:07 39.11548 23.47661 928 ft 125 kts 13°
2026-04-09 10:08 39.12409 23.47938 991 ft 133 kts 15°
2026-04-09 10:08 39.13273 23.48342 940 ft 135 kts 18°
2026-04-09 10:08 39.14170 23.48808 635 ft 138 kts 16°
2026-04-09 10:08 39.15062 23.49171 357 ft 130 kts 16°
2026-04-09 10:09 39.15868 23.49561 208 ft 123 kts 14°
2026-04-09 10:09 39.16676 23.49918 81 ft 124 kts 14°
2026-04-09 10:09 39.17452 23.50252 37 ft 90 kts 19°
2026-04-09 10:09 39.17780 23.50397 37 ft 37 kts 19°
2026-04-09 10:10 39.17920 23.50438 40 ft 9 kts 325°
2026-04-09 10:10 39.17928 23.50382 41 ft 7 kts 250°
2026-04-09 10:10 39.17924 23.50369 41 ft 4 kts 251°
2026-04-09 10:10 39.17924 23.50358 40 ft 0 kts 275°
2026-04-09 10:11 39.17937 23.50302 36 ft 13 kts 289°
2026-04-09 10:12 39.17949 23.50259 38 ft 0 kts 289°